Weather History for Visalia, CA

Change the Weather History Date:

Wednesday, April 17, 2013

  Actual Average Record
Temperature  
Mean Temperature 55 °F -  
Max Temperature 69 °F 74 °F 97 °F (1954)
Min Temperature 41 °F 48 °F 36 °F (1941)
Degree Days  
Heating Degree Days 10    
Growing Degree Days 5 (Base 50)    
Moisture  
Dew Point 29 °F    
Average Humidity 42    
Maximum Humidity 70    
Minimum Humidity 16    
Precipitation  
Precipitation 0.00 in - - ()
Sea Level Pressure  
Sea Level Pressure 30.15 in    
Wind  
Wind Speed 5 mph (NW)    
Max Wind Speed 14 mph    
Max Gust Speed 20 mph    
Visibility 10 miles    
Events      
Averages and records for this station are not official NWS values.
T = Trace of Precipitation, MM = Missing Value Source: NWS Daily Summary

Daily Weather History Graph

Daily Weather History Graph

Search for Another Location

Airport:

Trip Planner

Search our weather history database for the weather conditions in past years. The results will help you decide how hot, cold, wet, or windy it might be!

Date:

Astronomy

Apr. 17, 2013 Rise Set
Actual Time 6:21 AM PDT 7:33 PM PDT
Civil Twilight 5:54 AM PDT 8:00 PM PDT
Nautical Twilight 5:22 AM PDT 8:32 PM PDT
Astronomical Twilight 4:49 AM PDT 9:05 PM PDT
Moon 11:42 AM PDT (4/17) 1:11 AM PDT (4/17)
Length of Visible Light 14h 05m
Length of Day
13h 12m
Waxing Crescent, 43% of the Moon is Illuminated
Apr 17
Waxing Crescent
Apr 18
First Quarter
Apr 25
Full
May 2
Last Quarter
May 9
New

Hourly Weather History & Observations

Time (PDT) Temp. Windchill Dew Point Humidity Pressure Visibility Wind Dir Wind Speed Gust Speed Precip Events Conditions
12:15 AM 46.4 °F 44.3 °F 33.8 °F 62% 30.03 in 10.0 mi West 4.6 mph - N/A   Clear
12:35 AM 46.4 °F 44.3 °F 33.8 °F 62% 30.03 in 10.0 mi WSW 4.6 mph - N/A   Clear
12:55 AM 42.8 °F - 30.2 °F 61% 30.04 in 10.0 mi Calm Calm - N/A   Clear
1:15 AM 44.6 °F 41.4 °F 33.8 °F 66% 30.05 in 10.0 mi WNW 5.8 mph - N/A   Clear
1:35 AM 44.6 °F 42.2 °F 30.2 °F 57% 30.05 in 10.0 mi NNE 4.6 mph - N/A   Clear
1:55 AM 44.6 °F 42.2 °F 33.8 °F 66% 30.05 in 10.0 mi North 4.6 mph - N/A   Clear
2:15 AM 44.6 °F 42.2 °F 32.0 °F 61% 30.06 in 10.0 mi WNW 4.6 mph - N/A   Clear
2:35 AM 44.6 °F 42.2 °F 33.8 °F 66% 30.06 in 10.0 mi NNW 4.6 mph - N/A   Clear
2:55 AM 44.6 °F 41.4 °F 32.0 °F 61% 30.07 in 10.0 mi North 5.8 mph - N/A   Clear
3:15 AM 44.6 °F 41.4 °F 33.8 °F 66% 30.08 in 10.0 mi NW 5.8 mph - N/A   Clear
3:35 AM 42.8 °F 41.1 °F 30.2 °F 61% 30.08 in 10.0 mi NNW 3.5 mph - N/A   Clear
3:55 AM 42.8 °F 40.1 °F 33.8 °F 70% 30.08 in 10.0 mi North 4.6 mph - N/A   Clear
4:15 AM 42.8 °F 41.1 °F 30.2 °F 61% 30.10 in 10.0 mi NW 3.5 mph - N/A   Clear
4:35 AM 42.8 °F 40.1 °F 28.4 °F 57% 30.10 in 10.0 mi WNW 4.6 mph - N/A   Clear
4:55 AM 42.8 °F 40.1 °F 28.4 °F 57% 30.10 in 10.0 mi NW 4.6 mph - N/A   Clear
5:15 AM 41.0 °F 37.1 °F 26.6 °F 57% 30.10 in 10.0 mi NNW 5.8 mph - N/A   Clear
5:35 AM 42.8 °F - 28.4 °F 57% 30.11 in 10.0 mi Calm Calm - N/A   Clear
5:55 AM 42.8 °F 40.1 °F 28.4 °F 57% 30.12 in 10.0 mi NW 4.6 mph - N/A   Clear
6:15 AM 41.0 °F 37.1 °F 28.4 °F 61% 30.13 in 10.0 mi NW 5.8 mph - N/A   Clear
6:35 AM 41.0 °F 37.1 °F 28.4 °F 61% 30.14 in 10.0 mi NW 5.8 mph - N/A   Clear
7:15 AM 42.8 °F 40.1 °F 28.4 °F 57% 30.16 in 10.0 mi NNW 4.6 mph - N/A   Clear
7:35 AM 44.6 °F 40.7 °F 30.2 °F 57% 30.17 in 10.0 mi NW 6.9 mph - N/A   Clear
7:55 AM 44.6 °F 40.2 °F 30.2 °F 57% 30.18 in 10.0 mi NW 8.1 mph - N/A   Clear
8:15 AM 46.4 °F 43.5 °F 30.2 °F 53% 30.19 in 10.0 mi NW 5.8 mph - N/A   Clear
8:35 AM 46.4 °F 45.2 °F 32.0 °F 57% 30.20 in 10.0 mi WNW 3.5 mph - N/A   Clear
8:55 AM 48.2 °F - 30.2 °F 50% 30.20 in 10.0 mi Calm Calm - N/A   Clear
9:15 AM 51.8 °F - 32.0 °F 47% 30.20 in 10.0 mi Calm Calm - N/A   Clear
9:35 AM 53.6 °F - 32.0 °F 44% 30.20 in 10.0 mi SSE 3.5 mph - N/A   Clear
9:55 AM 53.6 °F - 33.8 °F 47% 30.21 in 10.0 mi Calm Calm - N/A   Clear
10:15 AM 53.6 °F - 33.8 °F 47% 30.21 in 10.0 mi Calm Calm - N/A   Clear
10:35 AM 55.4 °F - 33.8 °F 44% 30.21 in 10.0 mi Calm Calm - N/A   Clear
10:55 AM 57.2 °F - 33.8 °F 41% 30.21 in 10.0 mi Calm Calm - N/A   Clear
11:15 AM 57.2 °F - 35.6 °F 44% 30.21 in 10.0 mi SSW 3.5 mph - N/A   Clear
11:35 AM 59.0 °F - 33.8 °F 39% 30.21 in 10.0 mi Calm Calm - N/A   Clear
11:55 AM 60.8 °F - 33.8 °F 36% 30.21 in 10.0 mi Calm Calm - N/A   Clear
12:15 PM 62.6 °F - 35.6 °F 37% 30.21 in 10.0 mi Calm Calm - N/A   Clear
12:35 PM 62.6 °F - 30.2 °F 30% 30.20 in 10.0 mi NW 9.2 mph - N/A   Clear
12:55 PM 64.4 °F - 33.8 °F 32% 30.20 in 10.0 mi WNW 10.4 mph - N/A   Clear
1:35 PM 64.4 °F - 32.0 °F 30% 30.19 in 10.0 mi WNW 9.2 mph - N/A   Clear
1:55 PM 66.2 °F - 28.4 °F 24% 30.18 in 10.0 mi WNW 11.5 mph - N/A   Clear
2:15 PM 66.2 °F - 28.4 °F 24% 30.18 in 10.0 mi WNW 9.2 mph 17.3 mph N/A   Clear
2:35 PM 66.2 °F - 24.8 °F 21% 30.17 in 10.0 mi NW 9.2 mph 16.1 mph N/A   Clear
2:55 PM 68.0 °F - 24.8 °F 20% 30.16 in 10.0 mi NNW 13.8 mph 19.6 mph N/A   Clear
3:15 PM 68.0 °F - 23.0 °F 18% 30.15 in 10.0 mi NW 8.1 mph - N/A   Clear
3:35 PM 68.0 °F - 24.8 °F 20% 30.15 in 10.0 mi North 9.2 mph - N/A   Clear
3:55 PM 69.8 °F - 23.0 °F 17% 30.15 in 10.0 mi NNW 12.7 mph 16.1 mph N/A   Clear
4:15 PM 68.0 °F - 21.2 °F 17% 30.14 in 10.0 mi WNW 6.9 mph 16.1 mph N/A   Clear
4:35 PM 69.8 °F - 21.2 °F 16% 30.14 in 10.0 mi North 11.5 mph 16.1 mph N/A   Clear
5:15 PM 69.8 °F - 21.2 °F 16% 30.13 in 10.0 mi NNE 9.2 mph - N/A   Clear
5:35 PM 69.8 °F - 21.2 °F 16% 30.13 in 10.0 mi NW 5.8 mph - N/A   Clear
5:55 PM 68.0 °F - 21.2 °F 17% 30.14 in 10.0 mi NW 5.8 mph - N/A   Clear
6:15 PM 69.8 °F - 23.0 °F 17% 30.14 in 10.0 mi NW 10.4 mph - N/A   Clear
6:35 PM 68.0 °F - 21.2 °F 17% 30.14 in 10.0 mi NNW 9.2 mph - N/A   Clear
6:55 PM 66.2 °F - 21.2 °F 18% 30.14 in 10.0 mi NW 9.2 mph - N/A   Clear
7:15 PM 66.2 °F - 26.6 °F 23% 30.14 in 10.0 mi WNW 8.1 mph - N/A   Clear
7:35 PM 62.6 °F - 28.4 °F 27% 30.15 in 10.0 mi WNW 4.6 mph - N/A   Clear
7:55 PM 60.8 °F - 28.4 °F 29% 30.15 in 10.0 mi West 4.6 mph - N/A   Clear
8:15 PM 59.0 °F - 30.2 °F 34% 30.15 in 10.0 mi West 4.6 mph - N/A   Clear
8:35 PM 57.2 °F - 30.2 °F 36% 30.17 in 10.0 mi West 5.8 mph - N/A   Clear
9:15 PM 57.2 °F - 30.2 °F 36% 30.18 in 10.0 mi WNW 5.8 mph - N/A   Clear
9:35 PM 55.4 °F - 30.2 °F 38% 30.19 in 10.0 mi Calm Calm - N/A   Clear
9:55 PM 55.4 °F - 30.2 °F 38% 30.19 in 10.0 mi Calm Calm - N/A   Clear
10:15 PM 51.8 °F - 32.0 °F 47% 30.19 in 10.0 mi Calm Calm - N/A   Clear
10:35 PM 53.6 °F - 32.0 °F 44% 30.20 in 10.0 mi Calm Calm - N/A   Clear
10:55 PM 53.6 °F - 30.2 °F 41% 30.20 in 10.0 mi Calm Calm - N/A   Clear
11:15 PM 53.6 °F - 32.0 °F 44% 30.21 in 10.0 mi Calm Calm - N/A   Clear
11:35 PM 53.6 °F - 30.2 °F 41% 30.21 in 10.0 mi Calm Calm - N/A   Clear
11:55 PM 53.6 °F - 30.2 °F 41% 30.21 in 10.0 mi WNW 5.8 mph - N/A   Clear